This is the latest recevied weather packets stored in our database for station/object DH9NFM-12. If no packets are shown the sender has not sent any weather packets the latest 10 day(s).
| Time | Temp. | Humidity | Pressure | Rain* | Wind** | Luminosity | Snow |
|---|---|---|---|---|---|---|---|
| 1777498057 | 3.89° C | 54% | 1025.3 hPa | 0 mm | - | - | - |
| 1777497432 | 3.33° C | 55% | 1025.3 hPa | 0 mm | - | - | - |
| 1777496807 | 3.89° C | 55% | 1025.1 hPa | 0 mm | - | - | - |
| 1777496183 | 3.89° C | 55% | 1025.1 hPa | 0 mm | - | - | - |
| 1777495558 | 3.89° C | 56% | 1025 hPa | 0 mm | - | - | - |
| 1777494933 | 3.89° C | 55% | 1025 hPa | 0 mm | - | - | - |
| 1777494309 | 3.89° C | 55% | 1024.8 hPa | 0 mm | - | - | - |
| 1777493684 | 3.89° C | 55% | 1024.8 hPa | 0 mm | - | - | - |
| 1777493059 | 4.44° C | 54% | 1024.8 hPa | 0 mm | - | - | - |
| 1777492435 | 4.44° C | 54% | 1024.8 hPa | 0 mm | - | - | - |
| 1777491810 | 5° C | 53% | 1024.7 hPa | 0 mm | - | - | - |
| 1777491185 | 5° C | 52% | 1024.7 hPa | 0 mm | - | - | - |
| 1777490561 | 5° C | 52% | 1024.6 hPa | 0 mm | - | - | - |
| 1777489936 | 5.56° C | 51% | 1024.5 hPa | 0 mm | - | - | - |
| 1777489311 | 5.56° C | 50% | 1024.2 hPa | 0 mm | - | - | - |
| 1777488687 | 5.56° C | 50% | 1024.2 hPa | 0 mm | - | - | - |
| 1777488062 | 6.11° C | 49% | 1023.9 hPa | 0 mm | - | - | - |
| 1777487438 | 6.11° C | 49% | 1023.7 hPa | 0 mm | - | - | - |
| 1777486813 | 6.67° C | 48% | 1023.6 hPa | 0 mm | - | - | - |
| 1777486188 | 6.67° C | 48% | 1023.4 hPa | 0 mm | - | - | - |
| 1777485564 | 7.22° C | 47% | 1023.5 hPa | 0 mm | - | - | - |
| 1777484939 | 7.22° C | 48% | 1023.4 hPa | 0 mm | - | - | - |
| 1777484314 | 7.78° C | 47% | 1023.3 hPa | 0 mm | - | - | - |
| 1777483690 | 8.33° C | 45% | 1023.2 hPa | 0 mm | - | - | - |
| 1777483065 | 8.89° C | 44% | 1023.1 hPa | 0 mm | - | - | - |
* Rain latest hour (hover to see other rain measurements)
** Current wind speed in m/s (hover to see current wind gust speed)